Weather Roundup
Issued by NWS Springfield, MO

Home | Current Version | Previous Version | Text Only | Print | Product List | Glossary On
Versions: 1 2 3 4 5 6 7 8 9 10 11 12 13 14 15 16 17 18 19 20 21 22 23 24 25 26 27 28 29 30 31 32 33 34 35 36 37 38 39 40 41 42 43 44 45 46 47 48 49 50
000
NZUS99 KSGF 210407
HRRSGF

HOURLY WEATHER
NATIONAL WEATHER SERVICE SPRINGFIELD MO
1000 PM CST MON FEB 20 2017

......SGF CWA......

CITY           SKY/WX    TMP DP  RH WIND       PRES   REMARKS
SPRINGFIELD    LGT RAIN  58  55  90 SW3       29.94S
JOPLIN         CLOUDY    59  54  83 W6        29.93F
WEST PLAINS    LGT RAIN  62  60  93 CALM      29.95R
ROLLA          HVY RAIN  59  59 100 SE6       29.93R FOG
OSAGE BEACH    CLOUDY    61  55  81 W5        29.94R
BRANSON        LGT RAIN  57  57 100 CALM      29.95F

......SURROUNDING SGF CWA......

CITY           SKY/WX    TMP DP  RH WIND       PRES   REMARKS
CHANUTE        CLOUDY    55  51  86 SW6       29.92F
PARSONS        CLOUDY    53  50  89 CALM      29.93S
COFFEYVILLE    CLOUDY    57  53  86 CALM      29.92F
EMPORIA        MOCLDY    50  49  96 W5        29.93R
GROVE OK       CLOUDY    57  54  88 CALM      29.94F
ROGERS AR      CLOUDY    57  55  93 E8        29.92F
SILOAM SPRINGS CLOUDY    55  52  88 NW3       29.94R
HARRISON AR    LGT RAIN  57  57 100 N3        29.94F
NEAR YELLVILLE CLOUDY    63  55  77 NW6       29.90F

......KANSAS AND MISSOURI......

CITY           SKY/WX    TMP DP  RH WIND       PRES   REMARKS
KANSAS CTY INT CLOUDY    57  52  83 SW7       29.92R
DOWNTOWN KC    CLOUDY    62  52  69 SW7       29.91R
COLUMBIA       CLOUDY    62  59  90 W6        29.91S
SEDALIA        CLOUDY    59  56  89 S3        29.94R
ST JOSEPH      CLOUDY    56  53  90 W7        29.92R
ST LOUIS       CLOUDY    67  54  63 S10       29.91F
SPIRIT OF STL  CLOUDY    65  56  72 W5        29.92R
KIRKSVILLE     CLOUDY    60  55  83 SW7       29.91R
WICHITA        PTCLDY    55  44  66 N10       29.94R
TOPEKA         PTCLDY    55  50  83 CALM      29.93R
OLATHE         MOCLDY    58  53  84 W5        29.91S

......TENNESSEE......

CITY           SKY/WX    TMP DP  RH WIND       PRES   REMARKS
MEMPHIS        CLOUDY    70  51  51 SE12      29.91F
NASHVILLE      CLOUDY    62  43  49 SE8       30.04F

......ARKANSAS.......

CITY           SKY/WX    TMP DP  RH WIND       PRES   REMARKS
FAYETTEVILLE   CLOUDY    55  55 100 SE6       29.94F
FT SMITH       CLOUDY    59  57  93 SE3       29.91F
LITTLE ROCK    LGT RAIN  59  59 100 W8        29.93S

......OKLAHOMA.......

CITY           SKY/WX    TMP DP  RH WIND       PRES   REMARKS
TULSA          PTCLDY    57  55  93 S5        29.90F
PONCA CITY     CLEAR     48  45  89 CALM      29.92F
MCALESTER      PTCLDY    51  48  89 CALM      29.93S
OKLAHOMA CITY  PTCLDY    52  50  93 SW3       29.92S

......IOWA............

CITY           SKY/WX    TMP DP  RH WIND       PRES   REMARKS
DES MOINES     CLOUDY    55  47  74 N12       29.90R
QUAD CITIES    LGT RAIN  60  55  83 S6        29.91R

......ILLINOIS........

CITY           SKY/WX    TMP DP  RH WIND       PRES   REMARKS
QUINCY         LGT RAIN  60  59  96 SE6       29.90S FOG
CHICAGO        CLOUDY    60  45  57 S16       29.91F




USA.gov is the U.S. government's official web portal to all federal, state and local government web resources and services.